[Iaude] MPEC L124: 2024 LQ3 [a=1.40,e=0.49,i=4.6,H=24.3]

mpec at cfa.harvard.edu mpec at cfa.harvard.edu
Wed Jun 12 07:22:45 EDT 2024


M.P.E.C. 2024-L124                                Issued 2024 June 12, 11:21 UT

     The Minor Planet Electronic Circulars contain information on unusual
         minor planets, routine data on comets and natural satellites,
         and occasional editorial announcements.  They are published
    on behalf of Division F of the International Astronomical Union by the
          Minor Planet Center, Smithsonian Astrophysical Observatory,
                          Cambridge, MA 02138, U.S.A.
			  
             Prepared using the Tamkin Foundation Computer Network

                              MPC at CFA.HARVARD.EDU
            URL https://www.minorplanetcenter.net/    ISSN 1523-6714

                                    2024 LQ3                                    


Observations:
     K24L03Q  C2024 06 09.59403321 00 42.567-01 02 07.44         18.87GVEL124F51
     K24L03Q  C2024 06 09.59677421 00 34.619-01 02 38.04         18.42GVEL124F51
     K24L03Q* C2024 06 11.56643219 51 45.082-05 30 48.38         18.78oVEL124T05
     K24L03Q  C2024 06 11.56959719 51 40.058-05 31 05.12         18.38oVEL124T05
     K24L03Q  C2024 06 11.57595519 51 29.750-05 31 41.23         18.66oVEL124T05
     K24L03Q  C2024 06 11.59826619 50 54.144-05 33 46.12         18.76oVEL124T05
     K24L03Q 1C2024 06 11.98437 19 41 51.04 -06 09 04.1          19.4 VXEL124033
     K24L03Q 1C2024 06 11.98480 19 41 50.43 -06 09 06.0          19.3 VXEL124033
     K24L03Q 1C2024 06 11.98524 19 41 49.83 -06 09 08.3          19.3 VXEL124033
     K24L03Q 1C2024 06 11.98635 19 41 48.27 -06 09 14.0          19.4 VXEL124033
     K24L03Q KB2024 06 11.99514119 41 38.33 -06 09 39.9          18.9 GXEL124958
     K24L03Q KB2024 06 11.99599219 41 35.280-06 09 31.93               XEL124L34
     K24L03Q KB2024 06 11.99991419 41 31.67 -06 10 03.9          18.8 GXEL124958
     K24L03Q KB2024 06 12.00469519 41 25.01 -06 10 27.8          18.9 GXEL124958
     K24L03Q KB2024 06 12.00847619 41 19.74 -06 10 46.8          18.5 GXEL124958
     K24L03Q KB2024 06 12.01126319 41 15.87 -06 11 00.4          18.6 GXEL124958
     K24L03Q KB2024 06 12.24634 19 36 12.526-06 29 15.00         18.6 RZEL124H36
     K24L03Q KB2024 06 12.25175 19 36 05.482-06 29 39.88         18.5 RZEL124H36
     K24L03Q KC2024 06 12.25250819 36 03.33 -06 29 45.9          20.3 GVEL124H21
     K24L03Q KC2024 06 12.25530419 35 59.68 -06 29 59.0          20.4 GVEL124H21
     K24L03Q KB2024 06 12.25714 19 35 58.445-06 30 04.86         18.6 RZEL124H36
     K24L03Q KC2024 06 12.25782019 35 56.39 -06 30 10.6          20.3 GVEL124H21

Observer details:
033 Karl Schwarzschild Observatory, Tautenburg.  Observers C. Heogner, F.
    Ludwig, M. Hartmann, B. Stecklum.  Measurer B. Stecklum.  1.34-m f/3
    Schmidt + CCD.
958 Observatoire de Dax.  Observer P. Dupouy.  0.50-m f/4.5 Reflector + CMO.
F51 Pan-STARRS 1, Haleakala.  Observers J. Herman, T. Lowe, P. Minguez, A.
    Schultz, I. Smith.  Measurers K. Chambers, T. de Boer, J. Fairlamb, H.
    Gao, M. Huber, C.-C. Lin, E. Magnier, Y. Ramanjooloo, R. Wainscoat, R.
    Weryk.  1.8-m Ritchey-Chretien + CCD.
H21 Astronomical Research Observatory, Westfield.  Observer R. Holmes.
    Measurers T. Linder, R. Holmes, L. Horn.  0.76-m f/3.0 astrograph + CCD.
H36 Sandlot Observatory, Scranton.  Observer G. Hug.  0.56-m f/4.8 reflector +
    CMO.
L34 Galhassin Robotic Telescope, Isnello.  Observer A. Nastasi.  0.40-m f/3.8
    400mm Reflector + CMO.
T05 ATLAS-HKO, Haleakala.  Observers L. Denneau, R. Siverd, J. Tonry, H.
    Weiland.  Measurers L. Denneau, N. Erasmus, A. Fitzsimmons, J. Robinson,
    R. Siverd, J. Tonry, H. Weiland.  0.5-m Reflector + CCD.

Orbital elements:
2024 LQ3                                                 Earth MOID = 0.0052 AU
Epoch 2024 Mar. 31.0 TT = JDT 2460400.5                 Veres                   
M 351.76928              (2000.0)            P               Q                  
n   0.59232205     Peri.  278.94642     -0.99077139     -0.11150754             
a   1.4042059      Node   254.67900     +0.13249586     -0.91663142             
e   0.4948312      Incl.    4.58274     -0.02858131     -0.38386574             
P   1.66           H   24.35          G   0.15           U   8                  
Residuals in seconds of arc
240609 F51  0.3-  0.0     240611 033  0.0   0.2-    240612 H36  0.1-  0.0
240609 F51  0.2+  0.0     240611 033  0.1-  0.4-    240612 H36  0.1-  0.1-
240611 T05  0.0   0.8-    240611 958  0.5-  0.4+    240612 H21  0.0   0.3+
240611 T05  1.1+  0.4+    240611 L34  0.4-  0.8+    240612 H21  0.1+  0.0
240611 T05  0.3-  0.2+    240611 958  0.4-  0.1+    240612 H36  0.3-  0.3-
240611 T05  0.5+  0.7+    240612 958  0.2-  0.1-    240612 H21  0.1+  0.1-
240611 033  0.1-  0.4-    240612 958  0.2-  0.4-
240611 033  0.2-  0.1-    240612 958  0.0   0.1-

Ephemeris:
2024 LQ3                 a,e,i = 1.40, 0.49, 5                   q = 0.7094
Date    TT    R. A. (2000) Decl.     Delta      r    Elong.  Phase     V
2024 05 13    04 55 07.8 +14 20 20   0.2142  0.8179    23.2   150.9    29.2
...
2024 05 28    04 18 54.8 +14 33 49   0.08558 0.9284     6.9   172.5
...
2024 06 05    01 47 11.8 +13 54 31   0.03070 0.9930    44.7   134.0    22.9
...
2024 06 11    20 07 31.7 -04 29 41   0.03785 1.0425   135.0    43.5    19.0
2024 06 12    19 41 27.0 -06 07 32   0.04412 1.0507   142.3    36.2    19.2
2024 06 13    19 21 53.8 -07 17 52   0.05086 1.0590   147.9    30.6    19.3
...
2024 06 19    18 25 54.7 -10 24 40   0.09564 1.1085   164.5    14.2    20.3
...
2024 06 27    18 01 35.0 -11 50 21   0.1608  1.1739   167.3    10.9    21.4
...
2024 07 12    17 48 45.6 -13 21 00   0.2971  1.2926   155.4    19.1    23.2

M. P. C. Staff               (C) Copyright 2024 MPC           M.P.E.C. 2024-L124





More information about the Iaude mailing list